Home > Weather > Martigny > Past weeks

Flag for Switzerland Past Weather in Martigny, Valais, Switzerland — Yesterday and Last 2 Weeks

Now
58 °F

Cool.


Feels Like: 58 °F
Forecast: 62 / 92 °F
Wind: 2 mph from Southeast

Location: Sion

Current Time: Jun 28, 2016 at 8:00:27 AM

Latest Report: Jun 28, 2016 at 7:00 AM


Visibility: N/A

Pressure: 30.17 "Hg

Humidity: 70%

Dew Point: 48 °F

Location of MartignyLocation

Past Weather in Martigny — Graph

°F

Martigny Temperature Yesterday

Maximum temperature yesterday: 79 °F (at 4:00 PM)
Minimum temperature yesterday: 57 °F (at 6:00 AM)
Average temperature yesterday: 69 °F

High & Low Weather Summary for the Past Weeks

 TemperatureHumidityPressure
High93 °F (Jun 23, 4:00 PM)94% (Jun 16, 10:00 PM)30.29 "Hg (Jun 16, 10:00 PM)
Low49 °F (Jun 15, 4:00 AM)26% (Jun 23, 2:00 PM)29.47 "Hg (Jun 15, 4:00 PM)
Average66 °F63%29.96 "Hg
* Reported Jun 13 6:00 AM — Jun 28 6:00 AM, Martigny, Weather by CustomWeather, © 2016

Note: Actual official high and low records may vary slightly from our data, if they occured in-between our weather recording intervals... More about our weather records

Advertising

Martigny Weather History for the Previous 24 Hours

Scroll right to see more
 ConditionsComfort  
Time TempWeatherWind HumidityBarometerVisibility
6:00 AM
Tue, Jun 28
55 °FCool.1 mph79%30.18 "HgN/A
5:00 AM57 °FCool.No wind70%30.16 "HgN/A
4:00 AM56 °FCool.1 mph77%30.16 "HgN/A
3:00 AM56 °FCool.1 mph75%30.17 "HgN/A
2:00 AM59 °FClear.1 mph68%30.17 "Hg9 mi
1:00 AM62 °FRefreshingly cool.No wind60%30.14 "HgN/A
12:00 AM62 °FCool.1 mph63%30.13 "HgN/A
11:00 PM
Mon, Jun 27
65 °FPassing clouds.1 mph50%30.11 "Hg19 mi
10:00 PM69 °FMild.7 mph40%30.08 "HgN/A
9:00 PM71 °FMild.10 mph38%30.06 "HgN/A
8:00 PM74 °FMild.15 mph35%30.03 "HgN/A
7:00 PM77 °FMild.15 mph33%30.01 "HgN/A
6:00 PM79 °FPleasantly warm.16 mph31%30.00 "HgN/A
5:00 PM79 °FPassing clouds.14 mph30%30.00 "Hg28 mi
4:00 PM79 °FPleasantly warm.15 mph27%30.01 "HgN/A
3:00 PM77 °FPleasantly warm.15 mph27%30.02 "HgN/A
2:00 PM76 °FScattered clouds.14 mph31%30.04 "Hg19 mi
1:00 PM76 °FMild.14 mph33%30.05 "HgN/A
12:00 PM73 °FMild.14 mph35%30.08 "HgN/A
11:00 AM70 °FPartly sunny.13 mph42%30.10 "Hg19 mi
10:00 AM68 °FMild.9 mph49%30.12 "HgN/A
9:00 AM66 °FMild.5 mph57%30.12 "HgN/A
8:00 AM62 °FScattered clouds.1 mph61%30.14 "Hg19 mi
Weather by CustomWeather, © 2016

See weather overviewHow to use our weather pages